Wind_Speed
8 10 11 14 18 14 11 7 4 4 1 2 4 5 7 7 8 10 10 9 9 10 10 13 14 13 14 14 13 12 14 14 14 13 12 14 14 15 14 14 14 10 4
11 11 11 14 13 9 7 4 1 1 3 4 3 4 6 6 9 11 13 14 13 14 15 16 16 17 19 19 21 20 16 17 18 16 13 14 15 14 15 13 15 16 10
11 12 13 11 9 4 3 4 3 0 2 2 4 6 8 8 11 14 16 15 15 16 17 19 19 21 22 22 24 24 21 18 19 19 16 14 15 16 18 15 15 17 17
16 16 14 11 11 11 9 6 3 2 4 5 8 11 13 13 14 16 18 19 18 17 17 18 19 20 21 20 19 21 20 21 17 18 20 19 17 20 17 20 17 16 19
15 13 12 11 11 8 5 2 1 4 6 9 10 12 14 14 15 16 17 17 16 16 17 20 21 22 21 20 19 17 18 20 20 21 26 23 20 16 16 18 18 17 17
11 10 9 8 6 3 1 1 3 5 8 10 11 12 12 12 13 15 16 15 15 15 17 18 18 18 18 18 17 16 17 18 21 24 23 24 23 16 19 18 15 19 17
11 8 6 2 1 3 4 4 6 8 10 10 12 11 10 10 11 12 12 10 10 11 12 13 13 14 14 14 13 14 16 17 18 22 22 22 24 24 24 24 17 18 17
9 6 1 4 5 5 6 6 7 7 6 7 8 7 6 7 9 9 7 6 7 8 10 11 11 11 10 11 12 13 15 16 19 20 22 20 21 26 27 24 19 19 19
6 4 4 4 4 4 4 5 5 3 4 6 6 3 5 7 7 8 8 7 9 10 11 12 12 13 13 12 10 11 12 14 18 20 22 24 22 24 26 31 25 27 21
5 5 6 3 2 5 6 6 5 4 5 6 5 5 8 10 11 11 12 13 15 15 15 16 17 18 18 18 17 17 16 17 18 18 19 21 22 23 27 29 28 28 22
5 7 5 2 6 8 9 8 6 4 5 6 7 9 11 13 15 16 17 19 20 20 19 19 19 20 21 21 21 19 18 18 18 17 19 19 23 23 24 27 26 26 25
9 9 5 3 8 9 10 10 8 7 7 9 10 12 14 16 19 21 23 24 25 26 26 26 25 24 25 25 25 25 23 22 21 21 22 20 21 22 24 25 24 24 23
12 9 7 6 8 8 9 10 10 9 9 9 10 11 13 15 17 20 22 25 26 27 29 29 29 29 29 29 30 30 30 28 26 25 26 24 22 22 23 26 28 24 20
12 9 7 5 5 7 9 11 14 12 10 9 10 12 14 16 17 19 21 24 25 27 28 28 29 30 31 31 31 32 32 32 31 31 31 28 28 26 24 23 23 28 24
12 10 6 3 2 6 7 10 14 13 13 11 12 15 13 14 17 21 24 25 26 27 26 26 26 26 27 28 29 30 32 34 34 34 34 34 33 32 31 29 25 24 29
12 9 5 5 3 7 9 11 14 14 15 15 15 18 17 16 19 22 23 26 27 28 27 27 26 26 26 25 26 28 30 33 35 36 36 38 37 37 35 34 32 30 28
10 9 7 8 7 9 13 15 15 19 20 21 20 20 19 18 22 22 21 23 26 27 28 28 29 30 30 31 31 31 32 33 35 36 38 39 41 39 40 38 36 35 33
10 10 12 12 12 13 16 18 21 21 21 23 22 23 22 23 25 25 25 25 26 27 28 28 28 30 31 31 32 33 33 34 36 38 40 41 41 42 41 40 39 36 35
11 13 15 16 15 16 20 22 22 22 25 26 24 24 22 24 27 29 28 26 30 31 31 32 31 34 35 37 37 36 36 36 37 36 37 39 41 41 41 40 38 38 37
12 15 17 17 17 20 22 22 20 24 24 24 25 26 28 29 32 32 31 31 31 32 32 34 36 37 41 40 42 43 42 41 40 39 38 39 41 40 38 37 40 40 37
15 15 14 19 19 22 23 21 23 26 26 26 26 27 30 32 36 36 34 36 35 39 39 39 41 44 42 43 44 46 47 47 46 44 44 42 41 43 43 41 39 37 40
14 15 15 19 22 23 23 26 27 29 31 29 31 32 34 37 40 40 38 39 39 39 40 39 40 44 46 46 47 47 50 42 41 50 47 47 44 44 44 44 41 38 36
12 14 17 21 23 24 26 29 31 35 35 36 36 37 36 40 39 40 39 38 38 40 43 45 47 48 51 51 50 52 49 47 37 36 45 44 43 45 43 47 43 40 38
14 16 18 23 26 28 30 32 35 39 41 42 43 42 44 44 40 34 37 40 43 45 47 49 49 50 52 55 49 47 52 54 56 48 45 49 52 52 48 47 48 42 42
17 19 23 27 30 32 34 36 40 41 41 46 50 52 48 43 36 38 40 42 46 48 49 51 51 52 54 56 57 55 54 52 55 59 59 46 46 49 57 52 46 48 44
22 25 28 29 31 36 37 41 42 44 41 47 46 45 42 38 42 45 48 53 52 53 54 53 54 54 54 54 52 54 54 53 51 48 56 58 50 36 40 54 56 50 52
Wind_Direction
179 178 176 160 149 138 143 133 131 165 171 325 299 301 297 310 296 280 284 280 276 268 275 278 283 278 285 287 281 272 267 258 253 249 245 251 254 258 268 267 272 261 239
164 174 171 156 157 141 139 144 194 193 344 341 298 283 279 303 296 279 273 272 275 271 279 286 286 282 279 278 279 280 279 262 251 248 253 259 260 262 266 265 267 264 250
134 138 144 142 137 116 150 161 147 284 313 271 266 266 270 266 263 271 267 270 271 275 278 285 291 292 289 284 276 273 275 260 254 253 259 272 273 277 272 265 261 258 255
116 118 128 134 139 144 141 144 173 234 258 281 287 276 271 264 262 262 267 267 268 270 275 284 284 286 288 290 287 280 272 257 257 264 269 275 277 268 271 267 262 252 249
118 124 133 143 143 134 133 126 242 264 281 291 283 281 286 288 286 281 281 284 284 285 282 279 281 284 286 285 284 278 272 264 258 264 266 262 262 257 262 257 261 258 245
130 133 132 128 118 108 64 291 259 270 286 288 286 284 286 286 289 290 284 279 278 274 275 283 287 290 289 287 283 278 273 269 261 265 262 256 247 255 256 256 263 250 244
124 122 121 129 250 298 294 281 290 307 311 303 299 295 290 291 294 297 299 293 284 287 292 295 300 299 292 286 282 276 274 268 264 264 267 264 260 264 279 269 247 244 238
152 140 174 270 284 296 295 303 313 321 333 331 322 305 294 300 301 301 300 291 294 302 308 304 293 288 291 291 283 274 268 267 266 265 267 264 269 261 263 261 257 251 240
159 181 220 259 270 284 302 314 326 350 333 331 331 301 268 294 293 294 285 277 282 289 295 296 295 285 284 282 276 273 274 276 275 267 265 266 267 263 262 257 270 252 234
193 188 195 209 289 351 351 341 326 300 311 311 307 293 288 289 291 289 289 288 287 288 289 289 286 285 283 281 279 278 280 282 282 280 264 265 263 265 259 261 263 278 221
192 193 186 199 62 44 34 23 11 335 309 300 295 293 291 292 289 284 281 280 282 284 285 285 283 282 282 283 283 281 279 277 278 279 270 267 267 266 265 264 269 269 269
198 191 200 121 67 53 38 27 17 359 333 314 301 296 294 293 292 289 287 286 287 288 289 288 285 283 282 283 282 280 278 276 274 273 268 264 264 264 264 268 268 266 265
192 189 161 113 72 47 31 24 21 16 13 8 350 330 313 303 297 292 290 289 287 286 286 286 285 284 282 280 279 278 278 275 273 270 269 268 267 268 263 264 270 267 258
187 175 157 116 69 30 27 38 31 18 5 1 358 347 332 321 312 304 297 293 291 290 289 289 287 286 284 281 278 276 274 274 272 271 271 270 271 272 270 267 268 260 251
178 174 171 158 46 2 4 11 9 2 353 335 335 339 330 321 316 312 306 301 298 295 296 296 294 292 289 285 281 277 275 274 273 272 271 270 268 266 269 270 267 262 256
183 185 209 242 307 328 322 338 344 336 340 328 321 328 325 320 321 319 311 308 305 304 305 305 305 304 301 295 289 283 279 276 275 276 276 275 273 274 272 269 268 264 261
193 208 232 260 282 291 294 301 323 334 327 329 324 320 325 326 327 327 321 315 311 309 306 304 305 306 305 303 297 291 286 283 281 278 277 278 278 275 275 276 272 266 261
212 229 245 261 269 275 285 294 307 319 320 320 320 324 320 324 328 327 323 318 310 306 306 305 307 307 305 300 297 295 292 287 283 281 280 279 278 280 278 276 276 273 267
248 256 258 260 268 276 280 290 301 308 316 317 317 323 329 329 322 320 321 319 311 306 303 300 299 298 298 298 295 291 288 284 281 280 280 280 279 280 281 278 276 274 271
257 256 252 262 271 274 282 290 298 308 312 313 315 320 323 322 321 318 315 314 311 302 298 294 291 290 292 292 293 289 287 282 279 276 275 277 280 278 278 279 282 277 273
257 258 245 261 275 275 281 289 300 305 312 309 309 312 310 313 314 311 304 303 303 301 299 296 295 292 286 286 283 284 286 282 276 273 273 271 274 277 276 274 275 279 282
232 246 263 266 271 276 283 289 291 293 297 304 302 303 302 301 302 305 307 304 303 302 301 301 298 294 290 287 282 280 277 272 275 277 272 268 265 268 272 272 272 272 276
264 273 275 269 270 276 281 283 288 292 290 291 292 290 292 300 302 305 306 306 305 302 300 299 297 292 287 284 279 274 271 267 273 266 273 271 264 264 264 267 266 267 270
279 290 275 264 267 270 275 282 286 286 287 288 291 295 298 305 308 303 303 302 301 302 303 302 298 292 286 283 277 267 273 265 260 258 259 266 270 271 267 265 265 267 265
285 269 262 263 267 273 279 285 285 285 289 292 301 306 304 305 300 300 304 303 302 303 302 299 295 290 284 281 278 273 263 265 264 255 254 255 264 260 265 266 268 265 268
268 263 263 268 272 274 277 283 280 280 298 303 307 308 308 302 302 304 307 307 301 299 296 290 287 284 281 279 276 273 269 260 256 257 259 252 245 262 259 267 267 269 269
Height
3178 3178 3179 3180 3181 3181 3183 3185 3185 3186 3185 3184 3185 3185 3185 3183 3183 3183 3181 3179 3178 3177 3175 3175 3174 3175 3174 3171 3173 3172 3172 3171 3170 3170 3169 3170 3170 3171 3171 3172 3174 3173 3173
3178 3180 3181 3183 3185 3184 3184 3185 3186 3187 3187 3184 3185 3183 3181 3180 3182 3179 3179 3178 3175 3175 3174 3173 3173 3172 3171 3169 3169 3168 3168 3169 3168 3168 3167 3167 3167 3168 3170 3169 3170 3171 3172
3180 3180 3183 3185 3186 3186 3186 3186 3185 3185 3186 3184 3182 3182 3179 3177 3177 3177 3176 3174 3173 3173 3172 3171 3170 3169 3168 3167 3166 3165 3165 3166 3165 3165 3167 3166 3165 3166 3167 3166 3167 3170 3171
3181 3182 3183 3184 3183 3183 3183 3183 3184 3184 3183 3182 3180 3179 3177 3175 3174 3173 3172 3171 3171 3171 3170 3168 3167 3165 3163 3162 3161 3162 3162 3163 3163 3164 3164 3164 3162 3163 3164 3163 3165 3165 3168
3181 3182 3183 3183 3183 3182 3183 3181 3183 3183 3181 3180 3179 3179 3176 3174 3173 3173 3171 3170 3171 3169 3167 3165 3163 3161 3159 3158 3158 3159 3159 3160 3160 3161 3161 3160 3161 3159 3160 3160 3162 3162 3164
3182 3181 3182 3183 3183 3182 3182 3180 3180 3181 3179 3178 3177 3174 3173 3171 3170 3169 3167 3166 3166 3164 3163 3161 3159 3157 3155 3155 3155 3156 3157 3157 3157 3157 3157 3156 3157 3156 3157 3157 3157 3159 3159
3181 3183 3182 3183 3182 3183 3182 3181 3178 3178 3177 3176 3175 3173 3172 3170 3168 3167 3165 3164 3163 3162 3160 3159 3156 3155 3153 3152 3151 3152 3152 3153 3154 3153 3153 3153 3153 3153 3153 3151 3150 3155 3156
3180 3180 3180 3180 3180 3181 3180 3179 3177 3176 3176 3176 3174 3173 3171 3170 3168 3166 3164 3163 3162 3161 3159 3157 3155 3153 3152 3150 3150 3149 3149 3149 3149 3148 3148 3148 3149 3148 3149 3149 3145 3149 3152
3180 3180 3179 3179 3181 3180 3179 3178 3176 3175 3175 3175 3173 3171 3171 3170 3168 3166 3164 3162 3160 3159 3157 3155 3153 3152 3150 3149 3148 3148 3147 3147 3145 3144 3144 3143 3144 3143 3143 3144 3146 3145 3148
3178 3179 3178 3178 3180 3181 3179 3177 3176 3175 3175 3174 3173 3171 3170 3169 3167 3165 3163 3161 3159 3158 3156 3154 3152 3150 3148 3146 3145 3145 3144 3143 3141 3140 3140 3139 3139 3139 3140 3139 3142 3140 3141
3178 3179 3178 3179 3178 3180 3179 3177 3175 3175 3174 3173 3172 3171 3170 3168 3166 3163 3161 3159 3156 3155 3153 3151 3149 3147 3145 3144 3142 3141 3140 3139 3138 3137 3135 3135 3135 3135 3135 3134 3135 3136 3137
3178 3178 3179 3179 3178 3179 3178 3177 3175 3173 3172 3172 3171 3169 3168 3167 3164 3162 3159 3157 3154 3152 3150 3148 3147 3145 3143 3141 3139 3138 3136 3135 3134 3132 3131 3131 3130 3130 3130 3130 3131 3131 3131
3178 3177 3179 3178 3177 3178 3177 3175 3174 3173 3172 3170 3169 3167 3165 3163 3161 3158 3155 3152 3150 3148 3146 3144 3142 3140 3138 3137 3135 3134 3132 3131 3130 3128 3126 3126 3126 3125 3125 3125 3124 3125 3126
3178 3178 3177 3176 3176 3176 3176 3174 3173 3172 3170 3168 3166 3164 3162 3159 3157 3155 3152 3148 3145 3142 3140 3138 3136 3135 3133 3131 3129 3128 3127 3126 3124 3122 3121 3121 3120 3120 3120 3120 3119 3119 3120
3176 3176 3175 3174 3174 3174 3174 3173 3172 3170 3169 3167 3165 3162 3160 3157 3154 3151 3148 3144 3141 3137 3135 3133 3130 3128 3126 3124 3122 3121 3120 3118 3117 3116 3115 3115 3115 3116 3115 3115 3115 3115 3115
3175 3175 3173 3173 3173 3173 3172 3171 3170 3169 3167 3165 3162 3159 3156 3153 3150 3147 3143 3140 3137 3133 3130 3128 3126 3124 3122 3120 3118 3116 3114 3112 3111 3109 3107 3106 3107 3107 3108 3109 3109 3109 3110
3175 3173 3173 3172 3172 3171 3170 3169 3167 3165 3163 3160 3157 3155 3152 3149 3147 3143 3140 3136 3133 3130 3127 3124 3122 3120 3118 3115 3114 3112 3110 3107 3105 3103 3102 3100 3098 3100 3099 3099 3101 3103 3103
3172 3172 3171 3171 3170 3168 3167 3165 3164 3162 3159 3157 3155 3151 3148 3145 3141 3139 3136 3133 3130 3127 3124 3121 3118 3115 3112 3110 3108 3105 3103 3101 3099 3096 3095 3093 3092 3090 3091 3092 3091 3092 3094
3171 3170 3169 3167 3166 3166 3164 3162 3160 3158 3156 3153 3150 3147 3143 3140 3137 3134 3132 3129 3124 3122 3120 3117 3114 3111 3108 3104 3101 3098 3096 3093 3091 3089 3087 3085 3083 3082 3081 3082 3083 3083 3084
3168 3167 3166 3163 3162 3161 3160 3158 3156 3153 3151 3149 3146 3142 3138 3134 3131 3127 3124 3122 3119 3114 3112 3109 3106 3104 3099 3099 3095 3090 3087 3085 3084 3082 3080 3078 3075 3074 3073 3072 3070 3071 3075
3164 3164 3161 3158 3158 3157 3155 3153 3151 3149 3146 3142 3140 3136 3132 3129 3125 3121 3118 3114 3111 3106 3103 3101 3097 3093 3091 3089 3085 3082 3080 3075 3073 3072 3071 3070 3069 3065 3064 3064 3062 3062 3060
3160 3159 3158 3156 3154 3153 3151 3148 3146 3144 3140 3137 3134 3131 3127 3122 3118 3113 3108 3104 3100 3096 3093 3090 3088 3083 3079 3078 3074 3072 3067 3068 3062 3059 3060 3059 3060 3058 3056 3056 3055 3053 3054
3158 3157 3156 3154 3151 3148 3146 3143 3139 3136 3132 3129 3126 3122 3119 3115 3109 3104 3099 3094 3090 3086 3082 3078 3074 3071 3065 3064 3062 3058 3057 3053 3057 3056 3044 3047 3047 3048 3048 3045 3046 3045 3044
3155 3154 3152 3149 3146 3143 3140 3136 3133 3128 3125 3121 3116 3112 3109 3105 3100 3095 3090 3086 3081 3077 3072 3067 3062 3057 3053 3049 3048 3046 3039 3042 3041 3042 3038 3031 3034 3033 3034 3034 3033 3035 3035
3150 3148 3145 3142 3140 3137 3133 3130 3125 3120 3116 3110 3107 3102 3097 3092 3088 3083 3079 3074 3069 3063 3058 3053 3048 3043 3038 3034 3032 3028 3026 3023 3023 3024 3024 3025 3017 3017 3019 3021 3022 3022 3023
3145 3142 3140 3137 3134 3130 3126 3121 3116 3110 3106 3104 3098 3092 3086 3081 3076 3071 3066 3060 3054 3047 3041 3036 3030 3024 3021 3016 3015 3010 3007 3008 3006 3003 3007 3011 3013 3007 3000 3007 3009 3009 3011